When you browse on this site, cookies collect data to enhance your experience and personalize the content and advertising you see.
Visit our Privacy Policy to learn more. By continuing to use the site, you agree to this use of cookies and data.
  • In Hungary
  • List of Countries
  • For 7 days
  • Water Temperature
  • Satellite Maps
  • Weather Map
  • News
  • Weather Widgets
  • user-avatar
    Login

    Hourly Weather Dudinka

    Today, 14 December, Friday

    Time Temperature Precipitation Wind Pressure Humidity
    00:00 -25°C° 0 mm 3 mps 749 mmHg 99%
    01:00 -24°C° 0 mm 2 mps 749 mmHg 99%
    02:00 -24°C° 0 mm 2 mps 749 mmHg 99%
    03:00 -24°C° 0 mm 2 mps 749 mmHg 99%
    04:00 -25°C° 0 mm 3 mps 749 mmHg 99%
    05:00 -25°C° 0 mm 3 mps 749 mmHg 98%
    06:00 -23°C° 0 mm 4 mps 748 mmHg 96%
    07:00 -23°C° 0.1 mm 4 mps 748 mmHg 96%
    08:00 -22°C° 0.1 mm 4 mps 747 mmHg 96%
    09:00 -22°C° 0.1 mm 5 mps 747 mmHg 96%
    10:00 -22°C° 0.1 mm 4 mps 747 mmHg 96%
    11:00 -22°C° 0.1 mm 4 mps 746 mmHg 95%
    12:00 -24°C° 0 mm 5 mps 746 mmHg 95%
    13:00 -23°C° 0.1 mm 4 mps 746 mmHg 95%
    14:00 -23°C° 0.1 mm 4 mps 746 mmHg 95%
    15:00 -23°C° 0.1 mm 4 mps 746 mmHg 95%
    16:00 -23°C° 0.1 mm 4 mps 746 mmHg 95%
    17:00 -23°C° 0.1 mm 3 mps 746 mmHg 95%
    18:00 -23°C° 0.1 mm 3 mps 746 mmHg 95%
    19:00 -23°C° 0 mm 3 mps 746 mmHg 96%
    20:00 -21°C° 0 mm 2 mps 746 mmHg 96%
    21:00 -23°C° 0 mm 2 mps 746 mmHg 96%
    22:00 -23°C° 0 mm 2 mps 746 mmHg 96%
    23:00 -21°C° 0 mm 1 mps 746 mmHg 96%

    Tomorrow, 15 December, Saturday

    Time Temperature Precipitation Wind Pressure Humidity
    00:00 -21°C° 0 mm 1 mps 747 mmHg 96%
    01:00 -24°C° 0 mm 2 mps 747 mmHg 96%
    02:00 -25°C° 0 mm 2 mps 748 mmHg 97%
    03:00 -25°C° 0 mm 2 mps 748 mmHg 97%
    04:00 -25°C° 0 mm 2 mps 748 mmHg 97%
    05:00 -26°C° 0 mm 3 mps 749 mmHg 97%
    06:00 -27°C° 0 mm 3 mps 749 mmHg 97%
    07:00 -27°C° 0 mm 3 mps 750 mmHg 98%
    08:00 -27°C° 0 mm 3 mps 750 mmHg 98%
    09:00 -29°C° 0 mm 3 mps 751 mmHg 98%
    10:00 -29°C° 0 mm 3 mps 751 mmHg 98%
    11:00 -29°C° 0 mm 3 mps 752 mmHg 98%
    12:00 -29°C° 0 mm 3 mps 752 mmHg 98%
    13:00 -29°C° 0 mm 3 mps 753 mmHg 98%
    14:00 -29°C° 0 mm 3 mps 753 mmHg 98%
    15:00 -29°C° 0 mm 3 mps 754 mmHg 98%
    16:00 -29°C° 0 mm 3 mps 754 mmHg 99%
    17:00 -29°C° 0 mm 3 mps 755 mmHg 99%
    18:00 -28°C° 0 mm 2 mps 755 mmHg 99%
    19:00 -28°C° 0 mm 2 mps 755 mmHg 99%
    20:00 -27°C° 0 mm 2 mps 755 mmHg 99%
    21:00 -27°C° 0 mm 2 mps 755 mmHg 99%
    22:00 -27°C° 0 mm 2 mps 756 mmHg 98%
    23:00 -26°C° 0 mm 2 mps 756 mmHg 98%

    Day after tomorrow, 16 December, Sunday

    Time Temperature Precipitation Wind Pressure Humidity
    00:00 -26°C° 0 mm 3 mps 756 mmHg 98%
    01:00 -26°C° 0.1 mm 3 mps 756 mmHg 98%
    02:00 -26°C° 0.1 mm 3 mps 756 mmHg 98%
    03:00 -25°C° 0.1 mm 3 mps 756 mmHg 97%
    04:00 -26°C° 0 mm 3 mps 756 mmHg 98%
    05:00 -26°C° 0 mm 3 mps 755 mmHg 98%
    06:00 -29°C° 0 mm 4 mps 755 mmHg 98%
    07:00 -29°C° 0 mm 4 mps 755 mmHg 98%
    08:00 -29°C° 0 mm 4 mps 755 mmHg 98%
    09:00 -30°C° 0 mm 4 mps 754 mmHg 98%
    10:00 -31°C° 0 mm 5 mps 754 mmHg 97%
    11:00 -29°C° 0 mm 5 mps 754 mmHg 97%
    12:00 -30°C° 0 mm 6 mps 753 mmHg 97%
    13:00 -30°C° 0.1 mm 6 mps 753 mmHg 96%
    14:00 -30°C° 0.1 mm 7 mps 752 mmHg 96%
    15:00 -29°C° 0.1 mm 7 mps 752 mmHg 96%
    16:00 -29°C° 0.4 mm 7 mps 751 mmHg 96%
    17:00 -27°C° 0.4 mm 7 mps 751 mmHg 96%
    18:00 -27°C° 0.4 mm 7 mps 750 mmHg 96%
    19:00 -26°C° 0.4 mm 7 mps 749 mmHg 95%
    20:00 -26°C° 0.4 mm 7 mps 749 mmHg 95%
    21:00 -26°C° 0.4 mm 7 mps 748 mmHg 95%
    22:00 -25°C° 0.4 mm 7 mps 747 mmHg 95%
    23:00 -25°C° 0.4 mm 7 mps 746 mmHg 96%

    17 December, Monday

    Time Temperature Precipitation Wind Pressure Humidity
    00:00 -24°C° 0.4 mm 7 mps 746 mmHg 96%
    01:00 -23°C° 0.5 mm 7 mps 745 mmHg 96%
    02:00 -21°C° 0.5 mm 6 mps 744 mmHg 96%
    03:00 -20°C° 0.5 mm 6 mps 743 mmHg 96%
    04:00 -16°C° 0.4 mm 6 mps 743 mmHg 95%
    05:00 -14°C° 0.4 mm 6 mps 743 mmHg 93%
    06:00 -10°C° 0.4 mm 6 mps 743 mmHg 92%
    07:00 -11°C° 0 mm 6 mps 743 mmHg 89%
    08:00 -11°C° 0 mm 6 mps 743 mmHg 86%
    09:00 -12°C° 0 mm 6 mps 743 mmHg 83%
    10:00 -12°C° 0.2 mm 5 mps 743 mmHg 87%
    11:00 -11°C° 0.2 mm 4 mps 743 mmHg 92%
    12:00 -10°C° 0.2 mm 3 mps 743 mmHg 96%
    13:00 -10°C° 0.6 mm 3 mps 742 mmHg 96%
    14:00 -9°C° 0.6 mm 3 mps 742 mmHg 96%
    15:00 -9°C° 0.6 mm 3 mps 741 mmHg 96%
    16:00 -9°C° 0.2 mm 3 mps 741 mmHg 96%
    17:00 -10°C° 0.2 mm 3 mps 740 mmHg 96%
    18:00 -10°C° 0.2 mm 2 mps 740 mmHg 95%
    19:00 -10°C° 0.2 mm 2 mps 740 mmHg 96%
    20:00 -10°C° 0.2 mm 2 mps 740 mmHg 96%
    21:00 -12°C° 0.2 mm 2 mps 739 mmHg 96%
    22:00 -12°C° 0.4 mm 2 mps 739 mmHg 96%
    23:00 -13°C° 0.4 mm 3 mps 738 mmHg 96%

    18 December, Tuesday

    Time Temperature Precipitation Wind Pressure Humidity
    00:00 -14°C° 0.4 mm 3 mps 738 mmHg 96%
    01:00 -15°C° 0.2 mm 4 mps 738 mmHg 95%
    02:00 -16°C° 0.2 mm 4 mps 738 mmHg 94%
    03:00 -17°C° 0.2 mm 4 mps 738 mmHg 94%
    04:00 -20°C° 0 mm 4 mps 739 mmHg 95%
    05:00 -24°C° 0 mm 4 mps 739 mmHg 96%
    06:00 -26°C° 0 mm 4 mps 740 mmHg 97%
    07:00 -29°C° 0 mm 4 mps 740 mmHg 97%
    08:00 -30°C° 0 mm 4 mps 741 mmHg 97%
    09:00 -32°C° 0 mm 4 mps 741 mmHg 97%
    10:00 -34°C° 0 mm 4 mps 742 mmHg 96%
    11:00 -38°C° 0 mm 5 mps 743 mmHg 96%
    12:00 -40°C° 0 mm 5 mps 743 mmHg 96%
    13:00 -41°C° 0 mm 5 mps 744 mmHg 95%
    14:00 -43°C° 0 mm 6 mps 745 mmHg 95%
    15:00 -46°C° 0 mm 6 mps 745 mmHg 94%
    16:00 -47°C° 0 mm 7 mps 746 mmHg 94%
    17:00 -48°C° 0 mm 7 mps 747 mmHg 94%
    18:00 -48°C° 0 mm 7 mps 748 mmHg 93%
    19:00 -49°C° 0 mm 8 mps 748 mmHg 93%
    20:00 -49°C° 0 mm 8 mps 749 mmHg 93%
    21:00 -49°C° 0 mm 9 mps 750 mmHg 92%
    22:00 -49°C° 0 mm 9 mps 750 mmHg 92%
    23:00 -48°C° 0 mm 9 mps 751 mmHg 92%

    19 December, Wednesday

    Time Temperature Precipitation Wind Pressure Humidity
    00:00 -48°C° 0 mm 9 mps 752 mmHg 92%
    01:00 -48°C° 0 mm 9 mps 752 mmHg 92%
    02:00 -47°C° 0 mm 8 mps 753 mmHg 92%
    03:00 -47°C° 0 mm 8 mps 753 mmHg 92%
    04:00 -47°C° 0 mm 8 mps 754 mmHg 92%
    05:00 -47°C° 0 mm 8 mps 754 mmHg 93%
    06:00 -47°C° 0 mm 8 mps 755 mmHg 93%
    07:00 -47°C° 0 mm 8 mps 756 mmHg 93%
    08:00 -47°C° 0 mm 8 mps 756 mmHg 93%
    09:00 -47°C° 0 mm 8 mps 757 mmHg 93%
    10:00 -47°C° 0 mm 8 mps 758 mmHg 92%
    11:00 -46°C° 0 mm 8 mps 758 mmHg 92%
    12:00 -46°C° 0 mm 8 mps 759 mmHg 92%
    13:00 -45°C° 0 mm 7 mps 760 mmHg 92%
    14:00 -45°C° 0 mm 7 mps 760 mmHg 92%
    15:00 -44°C° 0 mm 7 mps 761 mmHg 93%
    16:00 -44°C° 0 mm 7 mps 762 mmHg 93%
    17:00 -44°C° 0 mm 7 mps 762 mmHg 94%
    18:00 -43°C° 0 mm 6 mps 763 mmHg 95%
    19:00 -43°C° 0 mm 6 mps 763 mmHg 95%
    20:00 -43°C° 0 mm 6 mps 763 mmHg 96%
    21:00 -44°C° 0 mm 5 mps 764 mmHg 96%
    22:00 -44°C° 0 mm 5 mps 764 mmHg 97%
    23:00 -44°C° 0 mm 5 mps 765 mmHg 97%
    Show more